軌道要素
Epoch 2022 Jan. 21.0 TT = JDT 2459600.5
T 2021 Sept. 20.45525 TT Rudenko
q 2.8901230 (2000.0) P Q
n 0.06188073 Peri. 200.74415 +0.63885292 -0.75616380
a 6.3304185 Node 210.08682 +0.73967020 +0.65436735
e 0.5434547 Incl. 16.42077 +0.21155362 -0.00443660
P 15.9
From 389 observations 2005 Sept. 30-2022 Jan. 31, mean residual 0".7.
|